owner,sensor,date,latitude,longitude,vertical_datum,sea_water_temperature,qcFlag 
COMPS,ioos:station:USF.COMPS:C10:1,2014-02-01T00:05:00Z,27.1690,-82.9260,-1.0,16.636,2 
COMPS,ioos:station:USF.COMPS:C10:1,2014-02-01T00:35:00Z,27.1690,-82.9260,-1.0,16.66,2 
COMPS,ioos:station:USF.COMPS:C10:1,2014-02-01T01:05:00Z,27.1690,-82.9260,-1.0,16.68,2 
COMPS,ioos:station:USF.COMPS:C10:1,2014-02-01T01:35:00Z,27.1690,-82.9260,-1.0,16.699,2 
COMPS,ioos:station:USF.COMPS:C10:1,2014-02-01T02:05:00Z,27.1690,-82.9260,-1.0,16.721,2 
COMPS,ioos:station:USF.COMPS:C10:1,2014-02-01T02:35:00Z,27.1690,-82.9260,-1.0,16.744,2 
COMPS,ioos:station:USF.COMPS:C10:1,2014-02-01T03:05:00Z,27.1690,-82.9260,-1.0,16.767,2 
COMPS,ioos:station:USF.COMPS:C10:1,2014-02-01T03:35:00Z,27.1690,-82.9260,-1.0,16.782,2 
COMPS,ioos:station:USF.COMPS:C10:1,2014-02-01T04:05:00Z,27.1690,-82.9260,-1.0,16.792,2 
COMPS,ioos:station:USF.COMPS:C10:1,2014-02-01T04:35:00Z,27.1690,-82.9260,-1.0,16.808,2 
COMPS,ioos:station:USF.COMPS:C10:1,2014-02-01T05:05:00Z,27.1690,-82.9260,-1.0,16.822,2 
COMPS,ioos:station:USF.COMPS:C10:1,2014-02-01T05:35:00Z,27.1690,-82.9260,-1.0,16.833,2 
COMPS,ioos:station:USF.COMPS:C10:1,2014-02-01T06:05:00Z,27.1690,-82.9260,-1.0,16.839,2 
COMPS,ioos:station:USF.COMPS:C10:1,2014-02-01T06:35:00Z,27.1690,-82.9260,-1.0,16.844,2 
COMPS,ioos:station:USF.COMPS:C10:1,2014-02-01T07:05:00Z,27.1690,-82.9260,-1.0,16.852,2 
COMPS,ioos:station:USF.COMPS:C10:1,2014-02-01T07:35:00Z,27.1690,-82.9260,-1.0,16.86,2 
COMPS,ioos:station:USF.COMPS:C10:1,2014-02-01T08:05:00Z,27.1690,-82.9260,-1.0,16.865,2 
COMPS,ioos:station:USF.COMPS:C10:1,2014-02-01T08:35:00Z,27.1690,-82.9260,-1.0,16.871,2 
COMPS,ioos:station:USF.COMPS:C10:1,2014-02-01T09:05:00Z,27.1690,-82.9260,-1.0,16.877,2 
COMPS,ioos:station:USF.COMPS:C10:1,2014-02-01T09:35:00Z,27.1690,-82.9260,-1.0,16.881,2 
COMPS,ioos:station:USF.COMPS:C10:1,2014-02-01T10:05:00Z,27.1690,-82.9260,-1.0,16.887,2 
COMPS,ioos:station:USF.COMPS:C10:1,2014-02-01T10:35:00Z,27.1690,-82.9260,-1.0,16.887,2 
COMPS,ioos:station:USF.COMPS:C10:1,2014-02-01T11:05:00Z,27.1690,-82.9260,-1.0,16.88,2 
COMPS,ioos:station:USF.COMPS:C10:1,2014-02-01T11:35:00Z,27.1690,-82.9260,-1.0,16.88,2 
COMPS,ioos:station:USF.COMPS:C10:1,2014-02-01T12:05:00Z,27.1690,-82.9260,-1.0,16.881,2 
COMPS,ioos:station:USF.COMPS:C10:1,2014-02-01T12:35:00Z,27.1690,-82.9260,-1.0,16.892,2 
COMPS,ioos:station:USF.COMPS:C10:1,2014-02-01T13:05:00Z,27.1690,-82.9260,-1.0,16.903,2 
COMPS,ioos:station:USF.COMPS:C10:1,2014-02-01T13:35:00Z,27.1690,-82.9260,-1.0,16.92,2 
COMPS,ioos:station:USF.COMPS:C10:1,2014-02-01T14:05:00Z,27.1690,-82.9260,-1.0,16.933,2 
COMPS,ioos:station:USF.COMPS:C10:1,2014-02-01T14:35:00Z,27.1690,-82.9260,-1.0,16.954,2 
COMPS,ioos:station:USF.COMPS:C10:1,2014-02-01T15:05:00Z,27.1690,-82.9260,-1.0,16.984,2 
COMPS,ioos:station:USF.COMPS:C10:1,2014-02-01T15:35:00Z,27.1690,-82.9260,-1.0,17.017,2 
COMPS,ioos:station:USF.COMPS:C10:1,2014-02-01T16:05:00Z,27.1690,-82.9260,-1.0,17.092,2 
COMPS,ioos:station:USF.COMPS:C10:1,2014-02-01T16:35:00Z,27.1690,-82.9260,-1.0,17.254,2 
COMPS,ioos:station:USF.COMPS:C10:1,2014-02-01T17:05:00Z,27.1690,-82.9260,-1.0,17.313,2 
COMPS,ioos:station:USF.COMPS:C10:1,2014-02-01T17:35:00Z,27.1690,-82.9260,-1.0,17.535,2 
COMPS,ioos:station:USF.COMPS:C10:1,2014-02-01T18:05:00Z,27.1690,-82.9260,-1.0,17.622,2 
COMPS,ioos:station:USF.COMPS:C10:1,2014-02-01T18:35:00Z,27.1690,-82.9260,-1.0,17.715,2 
COMPS,ioos:station:USF.COMPS:C10:1,2014-02-01T19:05:00Z,27.1690,-82.9260,-1.0,17.991,2 
COMPS,ioos:station:USF.COMPS:C10:1,2014-02-01T19:35:00Z,27.1690,-82.9260,-1.0,18.131,2 
COMPS,ioos:station:USF.COMPS:C10:1,2014-02-01T20:05:00Z,27.1690,-82.9260,-1.0,18.428,2 
COMPS,ioos:station:USF.COMPS:C10:1,2014-02-01T20:35:00Z,27.1690,-82.9260,-1.0,18.47,2 
COMPS,ioos:station:USF.COMPS:C10:1,2014-02-01T21:05:00Z,27.1690,-82.9260,-1.0,18.643,2 
COMPS,ioos:station:USF.COMPS:C10:1,2014-02-01T21:35:00Z,27.1690,-82.9260,-1.0,18.884,2 
COMPS,ioos:station:USF.COMPS:C10:1,2014-02-01T22:05:00Z,27.1690,-82.9260,-1.0,18.816,2 
COMPS,ioos:station:USF.COMPS:C10:1,2014-02-01T22:35:00Z,27.1690,-82.9260,-1.0,18.729,2 
COMPS,ioos:station:USF.COMPS:C10:1,2014-02-01T23:05:00Z,27.1690,-82.9260,-1.0,18.651,2 
COMPS,ioos:station:USF.COMPS:C10:1,2014-02-01T23:35:00Z,27.1690,-82.9260,-1.0,18.692,2 
COMPS,ioos:station:USF.COMPS:C10:1,2014-02-02T00:05:00Z,27.1690,-82.9260,-1.0,18.653,2 
COMPS,ioos:station:USF.COMPS:C10:1,2014-02-02T00:35:00Z,27.1690,-82.9260,-1.0,18.647,2 
COMPS,ioos:station:USF.COMPS:C10:1,2014-02-02T01:05:00Z,27.1690,-82.9260,-1.0,18.623,2 
COMPS,ioos:station:USF.COMPS:C10:1,2014-02-02T01:35:00Z,27.1690,-82.9260,-1.0,18.6,2 
COMPS,ioos:station:USF.COMPS:C10:1,2014-02-02T02:05:00Z,27.1690,-82.9260,-1.0,18.524,2 
COMPS,ioos:station:USF.COMPS:C10:1,2014-02-02T02:35:00Z,27.1690,-82.9260,-1.0,18.662,2 
COMPS,ioos:station:USF.COMPS:C10:1,2014-02-02T03:05:00Z,27.1690,-82.9260,-1.0,18.591,2 
COMPS,ioos:station:USF.COMPS:C10:1,2014-02-02T03:35:00Z,27.1690,-82.9260,-1.0,18.494,2 
COMPS,ioos:station:USF.COMPS:C10:1,2014-02-02T04:05:00Z,27.1690,-82.9260,-1.0,18.475,2 
COMPS,ioos:station:USF.COMPS:C10:1,2014-02-02T04:35:00Z,27.1690,-82.9260,-1.0,18.421,2 
COMPS,ioos:station:USF.COMPS:C10:1,2014-02-02T05:05:00Z,27.1690,-82.9260,-1.0,18.358,2 
COMPS,ioos:station:USF.COMPS:C10:1,2014-02-02T05:35:00Z,27.1690,-82.9260,-1.0,18.308,2 
COMPS,ioos:station:USF.COMPS:C10:1,2014-02-02T06:05:00Z,27.1690,-82.9260,-1.0,18.234,2 
COMPS,ioos:station:USF.COMPS:C10:1,2014-02-02T06:35:00Z,27.1690,-82.9260,-1.0,18.216,2 
COMPS,ioos:station:USF.COMPS:C10:1,2014-02-02T07:05:00Z,27.1690,-82.9260,-1.0,18.181,2 
COMPS,ioos:station:USF.COMPS:C10:1,2014-02-02T07:35:00Z,27.1690,-82.9260,-1.0,18.119,2 
COMPS,ioos:station:USF.COMPS:C10:1,2014-02-02T08:05:00Z,27.1690,-82.9260,-1.0,18.1,2 
COMPS,ioos:station:USF.COMPS:C10:1,2014-02-02T08:35:00Z,27.1690,-82.9260,-1.0,18.111,2 
COMPS,ioos:station:USF.COMPS:C10:1,2014-02-02T09:05:00Z,27.1690,-82.9260,-1.0,18.101,2 
COMPS,ioos:station:USF.COMPS:C10:1,2014-02-02T09:35:00Z,27.1690,-82.9260,-1.0,18.045,2 
COMPS,ioos:station:USF.COMPS:C10:1,2014-02-02T10:05:00Z,27.1690,-82.9260,-1.0,17.979,2 
COMPS,ioos:station:USF.COMPS:C10:1,2014-02-02T10:35:00Z,27.1690,-82.9260,-1.0,17.805,2 
COMPS,ioos:station:USF.COMPS:C10:1,2014-02-02T11:05:00Z,27.1690,-82.9260,-1.0,17.651,2 
COMPS,ioos:station:USF.COMPS:C10:1,2014-02-02T11:35:00Z,27.1690,-82.9260,-1.0,17.643,2 
COMPS,ioos:station:USF.COMPS:C10:1,2014-02-02T12:05:00Z,27.1690,-82.9260,-1.0,17.702,2 
COMPS,ioos:station:USF.COMPS:C10:1,2014-02-02T12:35:00Z,27.1690,-82.9260,-1.0,17.595,2 
COMPS,ioos:station:USF.COMPS:C10:1,2014-02-02T13:05:00Z,27.1690,-82.9260,-1.0,17.61,2 
COMPS,ioos:station:USF.COMPS:C10:1,2014-02-02T13:35:00Z,27.1690,-82.9260,-1.0,17.621,2 
COMPS,ioos:station:USF.COMPS:C10:1,2014-02-02T14:05:00Z,27.1690,-82.9260,-1.0,17.676,2 
COMPS,ioos:station:USF.COMPS:C10:1,2014-02-02T14:35:00Z,27.1690,-82.9260,-1.0,17.705,2 
COMPS,ioos:station:USF.COMPS:C10:1,2014-02-02T15:05:00Z,27.1690,-82.9260,-1.0,17.75,2 
COMPS,ioos:station:USF.COMPS:C10:1,2014-02-02T15:35:00Z,27.1690,-82.9260,-1.0,17.818,2 
COMPS,ioos:station:USF.COMPS:C10:1,2014-02-02T16:05:00Z,27.1690,-82.9260,-1.0,17.915,2 
COMPS,ioos:station:USF.COMPS:C10:1,2014-02-02T16:35:00Z,27.1690,-82.9260,-1.0,18.059,2 
COMPS,ioos:station:USF.COMPS:C10:1,2014-02-02T17:05:00Z,27.1690,-82.9260,-1.0,18.171,2 
COMPS,ioos:station:USF.COMPS:C10:1,2014-02-02T17:35:00Z,27.1690,-82.9260,-1.0,18.218,2 
COMPS,ioos:station:USF.COMPS:C10:1,2014-02-02T18:05:00Z,27.1690,-82.9260,-1.0,18.34,2 
COMPS,ioos:station:USF.COMPS:C10:1,2014-02-02T18:35:00Z,27.1690,-82.9260,-1.0,18.448,2 
COMPS,ioos:station:USF.COMPS:C10:1,2014-02-02T19:05:00Z,27.1690,-82.9260,-1.0,18.627,2 
COMPS,ioos:station:USF.COMPS:C10:1,2014-02-02T19:35:00Z,27.1690,-82.9260,-1.0,18.889,2 
COMPS,ioos:station:USF.COMPS:C10:1,2014-02-02T20:05:00Z,27.1690,-82.9260,-1.0,18.982,2 
COMPS,ioos:station:USF.COMPS:C10:1,2014-02-02T20:35:00Z,27.1690,-82.9260,-1.0,19.12,2 
COMPS,ioos:station:USF.COMPS:C10:1,2014-02-02T21:05:00Z,27.1690,-82.9260,-1.0,19.134,2 
COMPS,ioos:station:USF.COMPS:C10:1,2014-02-02T21:35:00Z,27.1690,-82.9260,-1.0,19.323,2 
COMPS,ioos:station:USF.COMPS:C10:1,2014-02-02T22:05:00Z,27.1690,-82.9260,-1.0,19.764,2 
COMPS,ioos:station:USF.COMPS:C10:1,2014-02-02T22:35:00Z,27.1690,-82.9260,-1.0,20.121,2 
COMPS,ioos:station:USF.COMPS:C10:1,2014-02-02T23:05:00Z,27.1690,-82.9260,-1.0,19.847,2 
COMPS,ioos:station:USF.COMPS:C10:1,2014-02-02T23:35:00Z,27.1690,-82.9260,-1.0,19.661,2 
COMPS,ioos:station:USF.COMPS:C10:1,2014-02-03T00:05:00Z,27.1690,-82.9260,-1.0,19.542,2 
COMPS,ioos:station:USF.COMPS:C10:1,2014-02-03T00:35:00Z,27.1690,-82.9260,-1.0,19.442,2 
COMPS,ioos:station:USF.COMPS:C10:1,2014-02-03T01:05:00Z,27.1690,-82.9260,-1.0,19.318,2 
COMPS,ioos:station:USF.COMPS:C10:1,2014-02-03T01:35:00Z,27.1690,-82.9260,-1.0,19.138,2 
COMPS,ioos:station:USF.COMPS:C10:1,2014-02-03T02:05:00Z,27.1690,-82.9260,-1.0,19.114,2 
COMPS,ioos:station:USF.COMPS:C10:1,2014-02-03T02:35:00Z,27.1690,-82.9260,-1.0,19.078,2 
COMPS,ioos:station:USF.COMPS:C10:1,2014-02-03T03:05:00Z,27.1690,-82.9260,-1.0,19.018,2 
COMPS,ioos:station:USF.COMPS:C10:1,2014-02-03T03:35:00Z,27.1690,-82.9260,-1.0,18.95,2 
COMPS,ioos:station:USF.COMPS:C10:1,2014-02-03T04:05:00Z,27.1690,-82.9260,-1.0,18.927,2 
COMPS,ioos:station:USF.COMPS:C10:1,2014-02-03T04:35:00Z,27.1690,-82.9260,-1.0,18.918,2 
COMPS,ioos:station:USF.COMPS:C10:1,2014-02-03T05:05:00Z,27.1690,-82.9260,-1.0,18.866,2 
COMPS,ioos:station:USF.COMPS:C10:1,2014-02-03T05:35:00Z,27.1690,-82.9260,-1.0,18.768,2 
COMPS,ioos:station:USF.COMPS:C10:1,2014-02-03T06:05:00Z,27.1690,-82.9260,-1.0,18.807,2 
COMPS,ioos:station:USF.COMPS:C10:1,2014-02-03T06:35:00Z,27.1690,-82.9260,-1.0,18.855,2 
COMPS,ioos:station:USF.COMPS:C10:1,2014-02-03T07:05:00Z,27.1690,-82.9260,-1.0,18.766,2 
COMPS,ioos:station:USF.COMPS:C10:1,2014-02-03T07:35:00Z,27.1690,-82.9260,-1.0,18.613,2 
COMPS,ioos:station:USF.COMPS:C10:1,2014-02-03T08:05:00Z,27.1690,-82.9260,-1.0,18.542,2 
COMPS,ioos:station:USF.COMPS:C10:1,2014-02-03T08:35:00Z,27.1690,-82.9260,-1.0,18.481,2 
COMPS,ioos:station:USF.COMPS:C10:1,2014-02-03T09:05:00Z,27.1690,-82.9260,-1.0,18.42,2 
COMPS,ioos:station:USF.COMPS:C10:1,2014-02-03T09:35:00Z,27.1690,-82.9260,-1.0,18.447,2 
COMPS,ioos:station:USF.COMPS:C10:1,2014-02-03T10:05:00Z,27.1690,-82.9260,-1.0,18.387,2 
COMPS,ioos:station:USF.COMPS:C10:1,2014-02-03T10:35:00Z,27.1690,-82.9260,-1.0,18.419,2 
COMPS,ioos:station:USF.COMPS:C10:1,2014-02-03T11:05:00Z,27.1690,-82.9260,-1.0,18.464,2 
COMPS,ioos:station:USF.COMPS:C10:1,2014-02-03T11:35:00Z,27.1690,-82.9260,-1.0,18.482,2 
COMPS,ioos:station:USF.COMPS:C10:1,2014-02-03T12:05:00Z,27.1690,-82.9260,-1.0,18.511,2 
COMPS,ioos:station:USF.COMPS:C10:1,2014-02-03T12:35:00Z,27.1690,-82.9260,-1.0,18.533,2 
COMPS,ioos:station:USF.COMPS:C10:1,2014-02-03T13:05:00Z,27.1690,-82.9260,-1.0,18.571,2 
COMPS,ioos:station:USF.COMPS:C10:1,2014-02-03T13:35:00Z,27.1690,-82.9260,-1.0,18.564,2 
COMPS,ioos:station:USF.COMPS:C10:1,2014-02-03T14:05:00Z,27.1690,-82.9260,-1.0,18.5,2 
COMPS,ioos:station:USF.COMPS:C10:1,2014-02-03T14:35:00Z,27.1690,-82.9260,-1.0,18.487,2 
COMPS,ioos:station:USF.COMPS:C10:1,2014-02-03T15:05:00Z,27.1690,-82.9260,-1.0,18.556,2 
COMPS,ioos:station:USF.COMPS:C10:1,2014-02-03T15:35:00Z,27.1690,-82.9260,-1.0,18.621,2 
COMPS,ioos:station:USF.COMPS:C10:1,2014-02-03T16:05:00Z,27.1690,-82.9260,-1.0,18.623,2 
COMPS,ioos:station:USF.COMPS:C10:1,2014-02-03T16:35:00Z,27.1690,-82.9260,-1.0,18.662,2 
COMPS,ioos:station:USF.COMPS:C10:1,2014-02-03T17:05:00Z,27.1690,-82.9260,-1.0,18.829,2 
COMPS,ioos:station:USF.COMPS:C10:1,2014-02-03T17:35:00Z,27.1690,-82.9260,-1.0,18.94,2 
COMPS,ioos:station:USF.COMPS:C10:1,2014-02-03T18:05:00Z,27.1690,-82.9260,-1.0,19.078,2 
COMPS,ioos:station:USF.COMPS:C10:1,2014-02-03T18:35:00Z,27.1690,-82.9260,-1.0,19.486,2 
COMPS,ioos:station:USF.COMPS:C10:1,2014-02-03T19:05:00Z,27.1690,-82.9260,-1.0,19.586,2 
COMPS,ioos:station:USF.COMPS:C10:1,2014-02-03T19:35:00Z,27.1690,-82.9260,-1.0,19.879,2 
COMPS,ioos:station:USF.COMPS:C10:1,2014-02-03T20:05:00Z,27.1690,-82.9260,-1.0,19.712,2 
COMPS,ioos:station:USF.COMPS:C10:1,2014-02-03T20:35:00Z,27.1690,-82.9260,-1.0,19.86,2 
COMPS,ioos:station:USF.COMPS:C10:1,2014-02-03T21:05:00Z,27.1690,-82.9260,-1.0,20.04,2 
COMPS,ioos:station:USF.COMPS:C10:1,2014-02-03T21:35:00Z,27.1690,-82.9260,-1.0,20.177,2 
COMPS,ioos:station:USF.COMPS:C10:1,2014-02-03T22:05:00Z,27.1690,-82.9260,-1.0,20.297,2 
COMPS,ioos:station:USF.COMPS:C10:1,2014-02-03T22:35:00Z,27.1690,-82.9260,-1.0,20.32,2 
COMPS,ioos:station:USF.COMPS:C10:1,2014-02-03T23:05:00Z,27.1690,-82.9260,-1.0,20.196,2 
COMPS,ioos:station:USF.COMPS:C10:1,2014-02-03T23:35:00Z,27.1690,-82.9260,-1.0,20.187,2 
COMPS,ioos:station:USF.COMPS:C10:1,2014-02-04T00:05:00Z,27.1690,-82.9260,-1.0,20.171,2 
COMPS,ioos:station:USF.COMPS:C10:1,2014-02-04T00:35:00Z,27.1690,-82.9260,-1.0,20.045,2 
COMPS,ioos:station:USF.COMPS:C10:1,2014-02-04T01:05:00Z,27.1690,-82.9260,-1.0,20.066,2 
COMPS,ioos:station:USF.COMPS:C10:1,2014-02-04T01:35:00Z,27.1690,-82.9260,-1.0,20.075,2 
COMPS,ioos:station:USF.COMPS:C10:1,2014-02-04T02:05:00Z,27.1690,-82.9260,-1.0,19.948,2 
COMPS,ioos:station:USF.COMPS:C10:1,2014-02-04T02:35:00Z,27.1690,-82.9260,-1.0,19.728,2 
COMPS,ioos:station:USF.COMPS:C10:1,2014-02-04T03:05:00Z,27.1690,-82.9260,-1.0,19.66,2 
COMPS,ioos:station:USF.COMPS:C10:1,2014-02-04T03:35:00Z,27.1690,-82.9260,-1.0,19.551,2 
COMPS,ioos:station:USF.COMPS:C10:1,2014-02-04T04:05:00Z,27.1690,-82.9260,-1.0,19.469,2 
COMPS,ioos:station:USF.COMPS:C10:1,2014-02-04T04:35:00Z,27.1690,-82.9260,-1.0,19.36,2 
COMPS,ioos:station:USF.COMPS:C10:1,2014-02-04T05:05:00Z,27.1690,-82.9260,-1.0,19.358,2 
COMPS,ioos:station:USF.COMPS:C10:1,2014-02-04T05:35:00Z,27.1690,-82.9260,-1.0,19.318,2 
COMPS,ioos:station:USF.COMPS:C10:1,2014-02-04T06:05:00Z,27.1690,-82.9260,-1.0,19.264,2 
COMPS,ioos:station:USF.COMPS:C10:1,2014-02-04T06:35:00Z,27.1690,-82.9260,-1.0,19.276,2 
COMPS,ioos:station:USF.COMPS:C10:1,2014-02-13T14:05:00Z,27.1690,-82.9260,-1.0,18.31,2 
COMPS,ioos:station:USF.COMPS:C10:1,2014-02-13T14:35:00Z,27.1690,-82.9260,-1.0,18.319,2 
COMPS,ioos:station:USF.COMPS:C10:1,2014-02-13T15:05:00Z,27.1690,-82.9260,-1.0,18.316,2 
COMPS,ioos:station:USF.COMPS:C10:1,2014-02-13T15:35:00Z,27.1690,-82.9260,-1.0,18.313,2 
COMPS,ioos:station:USF.COMPS:C10:1,2014-02-13T16:05:00Z,27.1690,-82.9260,-1.0,18.325,2 
COMPS,ioos:station:USF.COMPS:C10:1,2014-02-13T16:35:00Z,27.1690,-82.9260,-1.0,18.336,2 
COMPS,ioos:station:USF.COMPS:C10:1,2014-02-13T17:05:00Z,27.1690,-82.9260,-1.0,18.355,2 
COMPS,ioos:station:USF.COMPS:C10:1,2014-02-13T17:35:00Z,27.1690,-82.9260,-1.0,18.369,2 
COMPS,ioos:station:USF.COMPS:C10:1,2014-02-13T18:05:00Z,27.1690,-82.9260,-1.0,18.384,2 
COMPS,ioos:station:USF.COMPS:C10:1,2014-02-13T18:35:00Z,27.1690,-82.9260,-1.0,18.38,2 
COMPS,ioos:station:USF.COMPS:C10:1,2014-02-13T19:05:00Z,27.1690,-82.9260,-1.0,18.391,2 
COMPS,ioos:station:USF.COMPS:C10:1,2014-02-13T19:35:00Z,27.1690,-82.9260,-1.0,18.384,2 
COMPS,ioos:station:USF.COMPS:C10:1,2014-02-13T20:05:00Z,27.1690,-82.9260,-1.0,18.383,2 
COMPS,ioos:station:USF.COMPS:C10:1,2014-02-13T20:35:00Z,27.1690,-82.9260,-1.0,18.388,2 
COMPS,ioos:station:USF.COMPS:C10:1,2014-02-13T21:05:00Z,27.1690,-82.9260,-1.0,18.382,2 
COMPS,ioos:station:USF.COMPS:C10:1,2014-02-13T21:35:00Z,27.1690,-82.9260,-1.0,18.388,2 
COMPS,ioos:station:USF.COMPS:C10:1,2014-02-13T22:05:00Z,27.1690,-82.9260,-1.0,18.386,2 
COMPS,ioos:station:USF.COMPS:C10:1,2014-02-13T22:35:00Z,27.1690,-82.9260,-1.0,18.384,2 
COMPS,ioos:station:USF.COMPS:C10:1,2014-02-13T23:05:00Z,27.1690,-82.9260,-1.0,18.375,2 
COMPS,ioos:station:USF.COMPS:C10:1,2014-02-13T23:35:00Z,27.1690,-82.9260,-1.0,18.364,2 
COMPS,ioos:station:USF.COMPS:C10:1,2014-02-14T00:05:00Z,27.1690,-82.9260,-1.0,18.356,2 
COMPS,ioos:station:USF.COMPS:C10:1,2014-02-14T00:35:00Z,27.1690,-82.9260,-1.0,18.348,2 
COMPS,ioos:station:USF.COMPS:C10:1,2014-02-14T01:05:00Z,27.1690,-82.9260,-1.0,18.319,2 
COMPS,ioos:station:USF.COMPS:C10:1,2014-02-14T01:35:00Z,27.1690,-82.9260,-1.0,18.289,2 
COMPS,ioos:station:USF.COMPS:C10:1,2014-02-14T02:05:00Z,27.1690,-82.9260,-1.0,18.284,2 
COMPS,ioos:station:USF.COMPS:C10:1,2014-02-14T02:35:00Z,27.1690,-82.9260,-1.0,18.246,2 
COMPS,ioos:station:USF.COMPS:C10:1,2014-02-14T03:05:00Z,27.1690,-82.9260,-1.0,18.212,2 
COMPS,ioos:station:USF.COMPS:C10:1,2014-02-14T03:35:00Z,27.1690,-82.9260,-1.0,18.199,2 
COMPS,ioos:station:USF.COMPS:C10:1,2014-02-14T04:05:00Z,27.1690,-82.9260,-1.0,18.167,2 
COMPS,ioos:station:USF.COMPS:C10:1,2014-02-14T04:35:00Z,27.1690,-82.9260,-1.0,18.144,2 
COMPS,ioos:station:USF.COMPS:C10:1,2014-02-14T05:05:00Z,27.1690,-82.9260,-1.0,18.129,2 
COMPS,ioos:station:USF.COMPS:C10:1,2014-02-14T05:35:00Z,27.1690,-82.9260,-1.0,18.124,2 
COMPS,ioos:station:USF.COMPS:C10:1,2014-02-14T06:05:00Z,27.1690,-82.9260,-1.0,18.11,2 
COMPS,ioos:station:USF.COMPS:C10:1,2014-02-14T06:35:00Z,27.1690,-82.9260,-1.0,18.083,2 
COMPS,ioos:station:USF.COMPS:C10:1,2014-02-14T07:05:00Z,27.1690,-82.9260,-1.0,18.083,2 
COMPS,ioos:station:USF.COMPS:C10:1,2014-02-14T07:35:00Z,27.1690,-82.9260,-1.0,18.049,2 
COMPS,ioos:station:USF.COMPS:C10:1,2014-02-14T08:05:00Z,27.1690,-82.9260,-1.0,18.055,2 
COMPS,ioos:station:USF.COMPS:C10:1,2014-02-14T08:35:00Z,27.1690,-82.9260,-1.0,18.032,2 
COMPS,ioos:station:USF.COMPS:C10:1,2014-02-14T09:05:00Z,27.1690,-82.9260,-1.0,18.013,2 
COMPS,ioos:station:USF.COMPS:C10:1,2014-02-14T09:35:00Z,27.1690,-82.9260,-1.0,18.007,2 
COMPS,ioos:station:USF.COMPS:C10:1,2014-02-14T10:05:00Z,27.1690,-82.9260,-1.0,17.985,2 
COMPS,ioos:station:USF.COMPS:C10:1,2014-02-14T10:35:00Z,27.1690,-82.9260,-1.0,17.988,2 
COMPS,ioos:station:USF.COMPS:C10:1,2014-02-14T11:05:00Z,27.1690,-82.9260,-1.0,17.963,2 
COMPS,ioos:station:USF.COMPS:C10:1,2014-02-14T11:35:00Z,27.1690,-82.9260,-1.0,17.961,2 
COMPS,ioos:station:USF.COMPS:C10:1,2014-02-14T12:05:00Z,27.1690,-82.9260,-1.0,17.921,2 
COMPS,ioos:station:USF.COMPS:C10:1,2014-02-14T12:35:00Z,27.1690,-82.9260,-1.0,17.928,2 
COMPS,ioos:station:USF.COMPS:C10:1,2014-02-14T13:05:00Z,27.1690,-82.9260,-1.0,17.93,2 
COMPS,ioos:station:USF.COMPS:C10:1,2014-02-14T13:35:00Z,27.1690,-82.9260,-1.0,17.929,2 
COMPS,ioos:station:USF.COMPS:C10:1,2014-02-14T14:05:00Z,27.1690,-82.9260,-1.0,17.931,2 
COMPS,ioos:station:USF.COMPS:C10:1,2014-02-14T14:35:00Z,27.1690,-82.9260,-1.0,17.927,2 
COMPS,ioos:station:USF.COMPS:C10:1,2014-02-14T15:05:00Z,27.1690,-82.9260,-1.0,17.932,2 
COMPS,ioos:station:USF.COMPS:C10:1,2014-02-14T15:35:00Z,27.1690,-82.9260,-1.0,17.938,2 
COMPS,ioos:station:USF.COMPS:C10:1,2014-02-14T16:05:00Z,27.1690,-82.9260,-1.0,17.947,2 
COMPS,ioos:station:USF.COMPS:C10:1,2014-02-14T16:35:00Z,27.1690,-82.9260,-1.0,17.966,2 
COMPS,ioos:station:USF.COMPS:C10:1,2014-02-14T17:05:00Z,27.1690,-82.9260,-1.0,18.02,2 
COMPS,ioos:station:USF.COMPS:C10:1,2014-02-14T17:35:00Z,27.1690,-82.9260,-1.0,18.071,2 
COMPS,ioos:station:USF.COMPS:C10:1,2014-02-14T18:05:00Z,27.1690,-82.9260,-1.0,18.101,2 
COMPS,ioos:station:USF.COMPS:C10:1,2014-02-14T18:35:00Z,27.1690,-82.9260,-1.0,18.178,2 
COMPS,ioos:station:USF.COMPS:C10:1,2014-02-14T19:05:00Z,27.1690,-82.9260,-1.0,18.268,2 
COMPS,ioos:station:USF.COMPS:C10:1,2014-02-14T19:35:00Z,27.1690,-82.9260,-1.0,18.427,2 
COMPS,ioos:station:USF.COMPS:C10:1,2014-02-14T20:05:00Z,27.1690,-82.9260,-1.0,18.587,2 
COMPS,ioos:station:USF.COMPS:C10:1,2014-02-14T20:35:00Z,27.1690,-82.9260,-1.0,18.673,2 
COMPS,ioos:station:USF.COMPS:C10:1,2014-02-14T21:05:00Z,27.1690,-82.9260,-1.0,18.649,2 
COMPS,ioos:station:USF.COMPS:C10:1,2014-02-14T21:35:00Z,27.1690,-82.9260,-1.0,18.838,2 
COMPS,ioos:station:USF.COMPS:C10:1,2014-02-14T22:05:00Z,27.1690,-82.9260,-1.0,18.875,2 
COMPS,ioos:station:USF.COMPS:C10:1,2014-02-14T22:35:00Z,27.1690,-82.9260,-1.0,18.901,2 
COMPS,ioos:station:USF.COMPS:C10:1,2014-02-14T23:05:00Z,27.1690,-82.9260,-1.0,18.882,2 
COMPS,ioos:station:USF.COMPS:C10:1,2014-02-14T23:35:00Z,27.1690,-82.9260,-1.0,18.683,2 
COMPS,ioos:station:USF.COMPS:C10:1,2014-02-15T00:05:00Z,27.1690,-82.9260,-1.0,18.598,2 
COMPS,ioos:station:USF.COMPS:C10:1,2014-02-15T00:35:00Z,27.1690,-82.9260,-1.0,18.602,2 
COMPS,ioos:station:USF.COMPS:C10:1,2014-02-15T01:05:00Z,27.1690,-82.9260,-1.0,18.487,2 
COMPS,ioos:station:USF.COMPS:C10:1,2014-02-15T01:35:00Z,27.1690,-82.9260,-1.0,18.405,2 
COMPS,ioos:station:USF.COMPS:C10:1,2014-02-15T02:05:00Z,27.1690,-82.9260,-1.0,18.386,2 
COMPS,ioos:station:USF.COMPS:C10:1,2014-02-15T02:35:00Z,27.1690,-82.9260,-1.0,18.377,2 
COMPS,ioos:station:USF.COMPS:C10:1,2014-02-15T03:05:00Z,27.1690,-82.9260,-1.0,18.359,2 
COMPS,ioos:station:USF.COMPS:C10:1,2014-02-15T03:35:00Z,27.1690,-82.9260,-1.0,18.313,2 
COMPS,ioos:station:USF.COMPS:C10:1,2014-02-15T04:05:00Z,27.1690,-82.9260,-1.0,18.253,2 
COMPS,ioos:station:USF.COMPS:C10:1,2014-02-15T04:35:00Z,27.1690,-82.9260,-1.0,18.208,2 
COMPS,ioos:station:USF.COMPS:C10:1,2014-02-15T05:05:00Z,27.1690,-82.9260,-1.0,18.137,2 
COMPS,ioos:station:USF.COMPS:C10:1,2014-02-15T05:35:00Z,27.1690,-82.9260,-1.0,18.11,2 
COMPS,ioos:station:USF.COMPS:C10:1,2014-02-15T06:05:00Z,27.1690,-82.9260,-1.0,18.074,2 
COMPS,ioos:station:USF.COMPS:C10:1,2014-02-15T06:35:00Z,27.1690,-82.9260,-1.0,18.048,2 
COMPS,ioos:station:USF.COMPS:C10:1,2014-02-15T07:05:00Z,27.1690,-82.9260,-1.0,18.018,2 
COMPS,ioos:station:USF.COMPS:C10:1,2014-02-15T07:35:00Z,27.1690,-82.9260,-1.0,17.993,2 
COMPS,ioos:station:USF.COMPS:C10:1,2014-02-15T08:05:00Z,27.1690,-82.9260,-1.0,17.995,2 
COMPS,ioos:station:USF.COMPS:C10:1,2014-02-15T08:35:00Z,27.1690,-82.9260,-1.0,17.981,2 
COMPS,ioos:station:USF.COMPS:C10:1,2014-02-15T09:05:00Z,27.1690,-82.9260,-1.0,17.954,2 
COMPS,ioos:station:USF.COMPS:C10:1,2014-02-15T09:35:00Z,27.1690,-82.9260,-1.0,17.947,2 
COMPS,ioos:station:USF.COMPS:C10:1,2014-02-15T10:05:00Z,27.1690,-82.9260,-1.0,17.948,2 
COMPS,ioos:station:USF.COMPS:C10:1,2014-02-15T10:35:00Z,27.1690,-82.9260,-1.0,17.945,2 
COMPS,ioos:station:USF.COMPS:C10:1,2014-02-15T11:05:00Z,27.1690,-82.9260,-1.0,17.944,2 
COMPS,ioos:station:USF.COMPS:C10:1,2014-02-15T11:35:00Z,27.1690,-82.9260,-1.0,17.946,2 
COMPS,ioos:station:USF.COMPS:C10:1,2014-02-15T12:05:00Z,27.1690,-82.9260,-1.0,17.951,2 
COMPS,ioos:station:USF.COMPS:C10:1,2014-02-15T12:35:00Z,27.1690,-82.9260,-1.0,17.946,2 
COMPS,ioos:station:USF.COMPS:C10:1,2014-02-15T13:05:00Z,27.1690,-82.9260,-1.0,17.947,2 
COMPS,ioos:station:USF.COMPS:C10:1,2014-02-15T13:35:00Z,27.1690,-82.9260,-1.0,17.945,2 
COMPS,ioos:station:USF.COMPS:C10:1,2014-02-15T14:05:00Z,27.1690,-82.9260,-1.0,17.955,2 
COMPS,ioos:station:USF.COMPS:C10:1,2014-02-15T14:35:00Z,27.1690,-82.9260,-1.0,17.964,2 
COMPS,ioos:station:USF.COMPS:C10:1,2014-02-15T15:05:00Z,27.1690,-82.9260,-1.0,17.98,2 
COMPS,ioos:station:USF.COMPS:C10:1,2014-02-15T15:35:00Z,27.1690,-82.9260,-1.0,17.949,2 
COMPS,ioos:station:USF.COMPS:C10:1,2014-02-15T16:05:00Z,27.1690,-82.9260,-1.0,17.962,2 
COMPS,ioos:station:USF.COMPS:C10:1,2014-02-15T16:35:00Z,27.1690,-82.9260,-1.0,17.969,2 
COMPS,ioos:station:USF.COMPS:C10:1,2014-02-15T17:05:00Z,27.1690,-82.9260,-1.0,17.977,2 
COMPS,ioos:station:USF.COMPS:C10:1,2014-02-15T17:35:00Z,27.1690,-82.9260,-1.0,17.992,2 
COMPS,ioos:station:USF.COMPS:C10:1,2014-02-15T18:05:00Z,27.1690,-82.9260,-1.0,18.013,2 
COMPS,ioos:station:USF.COMPS:C10:1,2014-02-15T18:35:00Z,27.1690,-82.9260,-1.0,18.027,2 
COMPS,ioos:station:USF.COMPS:C10:1,2014-02-15T19:05:00Z,27.1690,-82.9260,-1.0,18.046,2 
COMPS,ioos:station:USF.COMPS:C10:1,2014-02-15T19:35:00Z,27.1690,-82.9260,-1.0,18.047,2 
COMPS,ioos:station:USF.COMPS:C10:1,2014-02-15T20:05:00Z,27.1690,-82.9260,-1.0,18.056,2 
COMPS,ioos:station:USF.COMPS:C10:1,2014-02-15T20:35:00Z,27.1690,-82.9260,-1.0,18.062,2 
COMPS,ioos:station:USF.COMPS:C10:1,2014-02-15T21:05:00Z,27.1690,-82.9260,-1.0,18.066,2 
COMPS,ioos:station:USF.COMPS:C10:1,2014-02-15T21:35:00Z,27.1690,-82.9260,-1.0,18.061,2 
COMPS,ioos:station:USF.COMPS:C10:1,2014-02-15T22:05:00Z,27.1690,-82.9260,-1.0,18.049,2 
COMPS,ioos:station:USF.COMPS:C10:1,2014-02-15T22:35:00Z,27.1690,-82.9260,-1.0,18.041,2 